Flag for Switzerland Weather past 2 weeks in Pratteln, Basel-Land, Switzerland

Now
54 °F

Light rain. Partly sunny.


Feels Like: 52 °F
Forecast: 50 / 65 °F
Wind: 6 mph from Southeast

Location: Bale-Mulhouse

Current Time: Apr 25, 2015 at 9:51:13 AM

Latest Report: Apr 25, 2015 at 9:30 AM


Visibility: N/A

Pressure: 29.89 "Hg

Humidity: 72%

Dew point: 45 °F

Location of PrattelnLocation

Historic Weather in Pratteln — Graph

°F

Pratteln temperature yesterday

Maximum temperature yesterday: 73 °F (at 4:00 PM)
Minimum temperature yesterday: 39 °F (at 4:00 AM)
Average temperature yesterday: 57 °F

Past Weeks' High & Low Weather Summary

 TemperatureHumidityPressure
High79 °F (Apr 15, 4:00 PM)100% (Apr 12, 5:30 AM)30.48 "Hg (Apr 12, 5:30 AM)
Low32 °F (Apr 19, 6:30 AM)20% (Apr 15, 4:30 PM)29.86 "Hg (Apr 25, 3:00 AM)
Average55 °F61%30.16 "Hg
* Reported Apr 10 8:00 AM — Apr 25 8:30 AM, Pratteln, Weather by CustomWeather, © 2015

Note: Actual official high and low records may vary slightly from our data, if they occured in-between our weather recording intervals... More about our weather records

Advertising

Pratteln weather history for previous 24 hours

 ConditionsComfort  
Time TempWeatherWind HumidityBarometerVisibility
8:30 AM
Sat, Apr 25
52 °FLight rain. Broken clouds.6 mph77%29.89 "HgN/A
8:00 AM52 °FLight rain. Partly sunny.3 mph72%29.89 "HgN/A
7:30 AM52 °FLight rain. Broken clouds.5 mph72%29.89 "HgN/A
7:00 AM50 °FLight rain. Partly cloudy.6 mph76%29.89 "HgN/A
6:30 AM50 °FLight rain. Partly cloudy.6 mph82%29.89 "HgN/A
6:00 AM50 °FLight rain. Partly cloudy.6 mph76%29.89 "HgN/A
5:30 AM52 °FLight rain. Clear.7 mph67%29.89 "HgN/A
5:00 AM52 °FPassing clouds.5 mph58%29.89 "HgN/A
4:30 AM52 °FClear.7 mph62%29.86 "Hg10 mi
4:00 AM50 °FClear.6 mph67%29.86 "HgN/A
3:30 AM50 °FClear.7 mph67%29.86 "HgN/A
3:00 AM48 °FClear.6 mph71%29.86 "HgN/A
2:30 AM50 °FClear.6 mph71%29.89 "HgN/A
2:00 AM50 °FClear.6 mph71%29.89 "HgN/A
1:30 AM48 °FClear.6 mph71%29.89 "HgN/A
1:00 AM48 °FClear.5 mph71%29.89 "HgN/A
12:30 AM50 °FClear.5 mph67%29.89 "Hg10 mi
11:30 PM
Fri, Apr 24
50 °FClear.2 mph67%29.92 "Hg10 mi
11:00 PM52 °FClear.2 mph58%29.89 "Hg10 mi
10:30 PM55 °FClear.2 mph51%29.89 "Hg10 mi
10:00 PM57 °FClear.3 mph48%29.89 "Hg10 mi
9:30 PM55 °FSunny.5 mph51%29.89 "Hg10 mi
9:00 PM59 °FSunny.5 mph42%29.89 "Hg10 mi
8:30 PM63 °FSunny.2 mph37%29.89 "Hg10 mi
8:00 PM68 °FSunny.5 mph26%29.89 "Hg10 mi
7:30 PM70 °FSunny.6 mph21%29.89 "Hg10 mi
7:00 PM72 °FPassing clouds.5 mph22%29.89 "HgN/A
6:30 PM73 °FPassing clouds.6 mph23%29.89 "HgN/A
6:00 PM73 °FPassing clouds.6 mph22%29.89 "HgN/A
5:30 PM72 °FPassing clouds.6 mph27%29.89 "HgN/A
5:00 PM73 °FPassing clouds.7 mph22%29.92 "HgN/A
4:30 PM72 °FPassing clouds.6 mph25%29.92 "HgN/A
4:00 PM73 °FPassing clouds.6 mph25%29.92 "HgN/A
3:30 PM72 °FPassing clouds.7 mph23%29.92 "HgN/A
3:00 PM70 °FPassing clouds.7 mph33%29.95 "HgN/A
2:30 PM70 °FSunny.6 mph31%29.95 "Hg10 mi
2:00 PM70 °FPassing clouds.9 mph31%29.98 "HgN/A
1:30 PM68 °FPassing clouds.8 mph35%29.98 "HgN/A
1:00 PM68 °FSunny.3 mph35%29.98 "Hg10 mi
12:30 PM66 °FSunny.3 mph35%29.98 "Hg10 mi
12:00 PM66 °FSunny.2 mph35%30.01 "Hg10 mi
11:30 AM63 °FSunny.3 mph42%30.01 "Hg10 mi
11:00 AM61 °FSunny.2 mph45%30.01 "Hg10 mi
10:30 AM59 °FPassing clouds.3 mph45%30.01 "HgN/A
10:00 AM55 °FPassing clouds.6 mph51%30.01 "HgN/A
9:30 AM55 °FPassing clouds.6 mph55%30.01 "HgN/A
9:00 AM52 °FPassing clouds.8 mph58%30.01 "HgN/A
Weather by CustomWeather, © 2015

See weather overviewHow to use our weather pages